TimeCDT,TemperatureF,Dew PointF,Humidity,Sea Level PressureIn,VisibilityMPH,Wind Direction,Wind SpeedMPH,Gust SpeedMPH,PrecipitationIn,Events,Conditions,WindDirDegrees,DateUTC
12:15 AM,51.8,48.2,88,29.43,10.0,Calm,Calm,-,N/A,,Clear,0,2012-10-17 05:15:00
12:35 AM,50.0,46.4,87,29.43,10.0,Calm,Calm,-,N/A,,Clear,0,2012-10-17 05:35:00
12:55 AM,50.0,48.2,94,29.42,10.0,Calm,Calm,-,N/A,,Clear,0,2012-10-17 05:55:00
1:15 AM,51.8,48.2,88,29.42,10.0,Calm,Calm,-,N/A,,Clear,0,2012-10-17 06:15:00
1:35 AM,50.0,46.4,87,29.43,10.0,Calm,Calm,-,N/A,,Clear,0,2012-10-17 06:35:00
1:55 AM,51.8,48.2,88,29.43,10.0,Calm,Calm,-,N/A,,Clear,0,2012-10-17 06:55:00
2:15 AM,50.0,46.4,87,29.42,10.0,Calm,Calm,-,N/A,,Clear,0,2012-10-17 07:15:00
2:35 AM,51.8,48.2,88,29.42,10.0,Calm,Calm,-,N/A,,Clear,0,2012-10-17 07:35:00
2:55 AM,51.8,48.2,88,29.42,10.0,Calm,Calm,-,N/A,,Clear,0,2012-10-17 07:55:00
3:15 AM,50.0,46.4,87,29.42,10.0,Calm,Calm,-,N/A,,Clear,0,2012-10-17 08:15:00
3:35 AM,51.8,46.4,82,29.41,10.0,East,3.5,-,N/A,,Clear,80,2012-10-17 08:35:00
3:55 AM,51.8,46.4,82,29.41,10.0,Calm,Calm,-,N/A,,Clear,0,2012-10-17 08:55:00
4:15 AM,51.8,46.4,82,29.40,10.0,Calm,Calm,-,N/A,,Clear,0,2012-10-17 09:15:00
4:35 AM,53.6,46.4,77,29.39,10.0,East,4.6,-,N/A,,Clear,100,2012-10-17 09:35:00
4:55 AM,53.6,46.4,77,29.39,10.0,Calm,Calm,-,N/A,,Clear,0,2012-10-17 09:55:00
5:15 AM,53.6,46.4,77,29.40,10.0,Calm,Calm,-,N/A,,Clear,0,2012-10-17 10:15:00
5:35 AM,53.6,48.2,82,29.38,10.0,East,5.8,-,N/A,,Clear,100,2012-10-17 10:35:00
5:55 AM,53.6,48.2,82,29.39,10.0,East,5.8,-,N/A,,Clear,100,2012-10-17 10:55:00
6:15 AM,53.6,48.2,82,29.39,10.0,Calm,Calm,-,N/A,,Clear,0,2012-10-17 11:15:00
6:35 AM,51.8,48.2,88,29.39,10.0,East,3.5,-,N/A,,Clear,100,2012-10-17 11:35:00
6:55 AM,53.6,48.2,82,29.37,10.0,East,8.1,-,N/A,,Clear,80,2012-10-17 11:55:00
7:15 AM,53.6,48.2,82,29.36,10.0,East,9.2,-,N/A,,Clear,90,2012-10-17 12:15:00
7:35 AM,53.6,48.2,82,29.36,10.0,East,4.6,-,N/A,,Clear,100,2012-10-17 12:35:00
7:55 AM,53.6,48.2,82,29.36,10.0,East,9.2,-,N/A,,Clear,90,2012-10-17 12:55:00
8:15 AM,55.4,48.2,77,29.36,10.0,East,6.9,-,N/A,,Clear,100,2012-10-17 13:15:00
8:35 AM,57.2,48.2,72,29.35,10.0,East,9.2,-,N/A,,Clear,80,2012-10-17 13:35:00
8:55 AM,57.2,48.2,72,29.36,10.0,ESE,3.5,-,N/A,,Scattered Clouds,110,2012-10-17 13:55:00
9:15 AM,59.0,48.2,67,29.35,10.0,ESE,6.9,-,N/A,,Overcast,110,2012-10-17 14:15:00
9:35 AM,59.0,48.2,67,29.36,10.0,SSE,4.6,-,N/A,,Overcast,160,2012-10-17 14:35:00
9:55 AM,60.8,48.2,63,29.36,10.0,South,9.2,-,N/A,,Mostly Cloudy,170,2012-10-17 14:55:00
10:15 AM,60.8,48.2,63,29.35,10.0,South,8.1,17.3,N/A,,Scattered Clouds,170,2012-10-17 15:15:00
10:35 AM,60.8,50.0,68,29.35,10.0,South,8.1,16.1,N/A,,Scattered Clouds,170,2012-10-17 15:35:00
10:55 AM,60.8,50.0,68,29.34,10.0,South,9.2,17.3,N/A,,Scattered Clouds,170,2012-10-17 15:55:00
11:15 AM,60.8,50.0,68,29.34,10.0,South,9.2,-,N/A,,Scattered Clouds,170,2012-10-17 16:15:00
11:55 AM,60.8,50.0,68,29.35,10.0,South,8.1,-,N/A,Rain,Light Rain,180,2012-10-17 16:55:00
12:15 PM,62.6,50.0,63,29.35,10.0,South,9.2,-,N/A,,Overcast,170,2012-10-17 17:15:00
12:35 PM,62.6,51.8,68,29.34,10.0,South,8.1,-,N/A,,Overcast,170,2012-10-17 17:35:00
12:55 PM,64.4,51.8,64,29.34,10.0,South,8.1,-,N/A,,Scattered Clouds,170,2012-10-17 17:55:00
1:15 PM,64.4,53.6,68,29.33,10.0,South,6.9,-,N/A,,Scattered Clouds,170,2012-10-17 18:15:00
1:35 PM,64.4,53.6,68,29.32,10.0,SSW,11.5,-,N/A,,Mostly Cloudy,210,2012-10-17 18:35:00
1:55 PM,64.4,51.8,64,29.32,10.0,SW,12.7,-,N/A,,Mostly Cloudy,220,2012-10-17 18:55:00
2:15 PM,62.6,51.8,68,29.34,10.0,SW,9.2,-,N/A,,Overcast,230,2012-10-17 19:15:00
2:35 PM,62.6,53.6,72,29.33,10.0,SW,10.4,-,N/A,,Light Drizzle,230,2012-10-17 19:35:00
2:55 PM,60.8,53.6,77,29.33,10.0,West,6.9,-,N/A,,Light Drizzle,260,2012-10-17 19:55:00
3:15 PM,59.0,53.6,82,29.34,10.0,WSW,6.9,-,N/A,Rain,Light Rain,240,2012-10-17 20:15:00
3:35 PM,57.2,53.6,88,29.32,10.0,West,10.4,-,0.02,Rain,Rain,260,2012-10-17 20:35:00
3:55 PM,57.2,53.6,88,29.32,7.0,West,5.8,-,0.06,Rain,Light Rain,270,2012-10-17 20:55:00
4:15 PM,55.4,53.6,94,29.34,10.0,SW,3.5,-,N/A,,Overcast,230,2012-10-17 21:15:00
4:35 PM,55.4,51.8,88,29.33,10.0,WSW,4.6,-,N/A,Rain,Light Rain,240,2012-10-17 21:35:00
4:55 PM,55.4,51.8,88,29.34,10.0,WSW,6.9,-,N/A,,Drizzle,240,2012-10-17 21:55:00
5:15 PM,55.4,51.8,88,29.34,10.0,Calm,Calm,-,0.01,,Drizzle,0,2012-10-17 22:15:00
5:35 PM,55.4,51.8,88,29.34,10.0,SSW,3.5,-,0.01,,Overcast,210,2012-10-17 22:35:00
5:55 PM,55.4,51.8,88,29.34,10.0,South,3.5,-,0.01,,Overcast,190,2012-10-17 22:55:00
6:15 PM,55.4,51.8,88,29.34,10.0,SSW,3.5,-,N/A,,Overcast,200,2012-10-17 23:15:00
6:35 PM,55.4,51.8,88,29.35,10.0,SW,5.8,-,N/A,,Overcast,220,2012-10-17 23:35:00
6:55 PM,55.4,51.8,88,29.35,10.0,SSW,6.9,-,N/A,,Overcast,210,2012-10-17 23:55:00
7:15 PM,55.4,50.0,82,29.35,10.0,SW,6.9,-,N/A,,Overcast,220,2012-10-18 00:15:00
7:35 PM,55.4,50.0,82,29.35,10.0,SW,6.9,-,N/A,,Overcast,230,2012-10-18 00:35:00
7:55 PM,55.4,44.6,67,29.34,10.0,WSW,10.4,16.1,N/A,,Scattered Clouds,240,2012-10-18 00:55:00
8:15 PM,53.6,42.8,67,29.35,10.0,West,11.5,-,N/A,,Scattered Clouds,260,2012-10-18 01:15:00
8:35 PM,53.6,41.0,62,29.34,10.0,West,8.1,-,N/A,,Clear,260,2012-10-18 01:35:00
8:55 PM,53.6,41.0,62,29.34,10.0,WSW,6.9,-,N/A,,Clear,250,2012-10-18 01:55:00
9:15 PM,53.6,41.0,62,29.33,10.0,West,8.1,-,N/A,,Clear,260,2012-10-18 02:15:00
9:35 PM,51.8,41.0,67,29.32,10.0,West,5.8,-,N/A,,Clear,260,2012-10-18 02:35:00
9:55 PM,51.8,41.0,67,29.34,10.0,WSW,6.9,-,N/A,,Clear,250,2012-10-18 02:55:00
10:15 PM,50.0,41.0,71,29.32,10.0,West,5.8,-,N/A,,Scattered Clouds,270,2012-10-18 03:15:00
10:35 PM,50.0,41.0,71,29.31,10.0,West,9.2,16.1,N/A,,Scattered Clouds,270,2012-10-18 03:35:00
10:55 PM,50.0,41.0,71,29.31,10.0,West,13.8,17.3,N/A,,Mostly Cloudy,270,2012-10-18 03:55:00
11:15 PM,50.0,41.0,71,29.33,10.0,WSW,12.7,19.6,N/A,,Overcast,250,2012-10-18 04:15:00
11:35 PM,50.0,41.0,71,29.33,10.0,West,8.1,16.1,N/A,,Overcast,260,2012-10-18 04:35:00
11:55 PM,48.2,41.0,76,29.32,10.0,WSW,10.4,-,N/A,,Overcast,250,2012-10-18 04:55:00